Time,TemperatureF,DewpointF,PressureIn,WindDirection,WindDirectionDegrees,WindSpeedMPH,WindSpeedGustMPH,Humidity,HourlyPrecipIn,Conditions,Clouds,dailyrainin,SolarRadiationWatts/m^2,SoftwareType,DateUTC
2013-06-04 00:02:00,78.0,60.7,29.71,WSW,256,0.0,2.0,55,0.00,,,0.00,0.0,WUHU216DAVISVP2,2013-06-04 07:02:00,
2013-06-04 00:07:00,77.6,59.3,29.71,WSW,249,2.0,3.0,53,0.00,,,0.00,0.0,WUHU216DAVISVP2,2013-06-04 07:07:00,
2013-06-04 00:12:00,77.3,59.0,29.71,SW,236,0.0,3.0,53,0.00,,,0.00,0.0,WUHU216DAVISVP2,2013-06-04 07:12:00,
2013-06-04 00:17:00,77.0,58.7,29.71,SW,219,0.0,3.0,53,0.00,,,0.00,0.0,WUHU216DAVISVP2,2013-06-04 07:17:00,
2013-06-04 00:22:00,76.7,58.3,29.71,SW,219,0.0,3.0,53,0.00,,,0.00,0.0,WUHU216DAVISVP2,2013-06-04 07:22:00,
2013-06-04 00:27:00,76.6,58.3,29.71,SW,219,0.0,3.0,53,0.00,,,0.00,0.0,WUHU216DAVISVP2,2013-06-04 07:27:00,
2013-06-04 00:32:00,76.4,58.7,29.71,SW,219,0.0,3.0,54,0.00,,,0.00,0.0,WUHU216DAVISVP2,2013-06-04 07:32:00,
2013-06-04 00:37:00,76.3,58.0,29.71,SW,219,0.0,2.0,53,0.00,,,0.00,0.0,WUHU216DAVISVP2,2013-06-04 07:37:00,
2013-06-04 00:42:00,76.2,57.3,29.71,SW,219,0.0,1.0,52,0.00,,,0.00,0.0,WUHU216DAVISVP2,2013-06-04 07:42:00,
2013-06-04 00:47:00,76.0,57.6,29.71,SW,219,0.0,1.0,53,0.00,,,0.00,0.0,WUHU216DAVISVP2,2013-06-04 07:47:00,
2013-06-04 00:52:00,75.7,57.4,29.71,SW,219,0.0,1.0,53,0.00,,,0.00,0.0,WUHU216DAVISVP2,2013-06-04 07:52:00,
2013-06-04 00:57:00,75.5,57.2,29.71,SW,219,0.0,1.0,53,0.00,,,0.00,0.0,WUHU216DAVISVP2,2013-06-04 07:57:00,
2013-06-04 01:02:00,75.2,57.0,29.71,SW,219,0.0,1.0,53,0.00,,,0.00,0.0,WUHU216DAVISVP2,2013-06-04 08:02:00,
2013-06-04 01:07:00,74.9,57.3,29.71,SW,219,0.0,1.0,54,0.00,,,0.00,0.0,WUHU216DAVISVP2,2013-06-04 08:07:00,
2013-06-04 01:12:00,74.7,57.1,29.71,SW,219,1.0,2.0,54,0.00,,,0.00,0.0,WUHU216DAVISVP2,2013-06-04 08:12:00,
2013-06-04 01:17:00,74.6,57.0,29.71,SW,219,0.0,3.0,54,0.00,,,0.00,0.0,WUHU216DAVISVP2,2013-06-04 08:17:00,
2013-06-04 01:22:00,74.4,56.7,29.71,SW,219,0.0,3.0,54,0.00,,,0.00,0.0,WUHU216DAVISVP2,2013-06-04 08:22:00,
2013-06-04 01:27:00,74.2,56.6,29.71,SW,219,0.0,3.0,54,0.00,,,0.00,0.0,WUHU216DAVISVP2,2013-06-04 08:27:00,
2013-06-04 01:32:00,74.3,57.1,29.71,SW,219,1.0,3.0,55,0.00,,,0.00,0.0,WUHU216DAVISVP2,2013-06-04 08:32:00,
2013-06-04 01:37:00,74.3,57.6,29.71,SW,219,1.0,3.0,56,0.00,,,0.00,0.0,WUHU216DAVISVP2,2013-06-04 08:37:00,
2013-06-04 01:42:00,74.5,57.9,29.71,SW,219,0.0,3.0,56,0.00,,,0.00,0.0,WUHU216DAVISVP2,2013-06-04 08:42:00,
2013-06-04 01:47:00,74.6,58.0,29.71,SW,219,1.0,3.0,56,0.00,,,0.00,0.0,WUHU216DAVISVP2,2013-06-04 08:47:00,
2013-06-04 01:52:00,74.6,58.0,29.71,WSW,242,1.0,3.0,56,0.00,,,0.00,0.0,WUHU216DAVISVP2,2013-06-04 08:52:00,
2013-06-04 01:57:00,74.5,57.9,29.71,West,281,0.0,4.0,56,0.00,,,0.00,0.0,WUHU216DAVISVP2,2013-06-04 08:57:00,
2013-06-04 02:02:00,74.2,58.2,29.71,WNW,282,0.0,4.0,57,0.00,,,0.00,0.0,WUHU216DAVISVP2,2013-06-04 09:02:00,
2013-06-04 02:07:00,73.5,58.0,29.71,WNW,282,0.0,4.0,58,0.00,,,0.00,0.0,WUHU216DAVISVP2,2013-06-04 09:07:00,
2013-06-04 02:12:00,73.1,57.4,29.71,WNW,282,0.0,4.0,58,0.00,,,0.00,0.0,WUHU216DAVISVP2,2013-06-04 09:12:00,
2013-06-04 02:17:00,72.8,57.6,29.71,WNW,282,0.0,3.0,59,0.00,,,0.00,0.0,WUHU216DAVISVP2,2013-06-04 09:17:00,
2013-06-04 02:22:00,72.6,57.9,29.71,WNW,282,0.0,1.0,60,0.00,,,0.00,0.0,WUHU216DAVISVP2,2013-06-04 09:22:00,
2013-06-04 02:27:00,72.3,58.1,29.71,WNW,282,0.0,1.0,61,0.00,,,0.00,0.0,WUHU216DAVISVP2,2013-06-04 09:27:00,
2013-06-04 02:32:00,72.1,57.6,29.71,WNW,282,0.0,0.0,60,0.00,,,0.00,0.0,WUHU216DAVISVP2,2013-06-04 09:32:00,
2013-06-04 02:37:00,72.0,57.5,29.71,WNW,282,0.0,2.0,60,0.00,,,0.00,0.0,WUHU216DAVISVP2,2013-06-04 09:37:00,
2013-06-04 02:42:00,71.9,56.5,29.71,WNW,282,0.0,2.0,58,0.00,,,0.00,0.0,WUHU216DAVISVP2,2013-06-04 09:42:00,
2013-06-04 02:47:00,72.0,57.1,29.72,WNW,282,3.0,3.0,59,0.00,,,0.00,0.0,WUHU216DAVISVP2,2013-06-04 09:47:00,
2013-06-04 02:52:00,72.2,57.3,29.72,WNW,282,0.0,3.0,59,0.00,,,0.00,0.0,WUHU216DAVISVP2,2013-06-04 09:52:00,
2013-06-04 02:57:00,72.1,57.2,29.72,WNW,282,0.0,3.0,59,0.00,,,0.00,0.0,WUHU216DAVISVP2,2013-06-04 09:57:00,
2013-06-04 03:02:00,72.1,57.2,29.72,WNW,282,0.0,3.0,59,0.00,,,0.00,0.0,WUHU216DAVISVP2,2013-06-04 10:02:00,
2013-06-04 03:07:00,72.0,56.9,29.72,WNW,282,0.0,1.0,59,0.00,,,0.00,0.0,WUHU216DAVISVP2,2013-06-04 10:07:00,
2013-06-04 03:12:00,71.8,56.7,29.72,WNW,282,0.0,2.0,59,0.00,,,0.00,0.0,WUHU216DAVISVP2,2013-06-04 10:12:00,
2013-06-04 03:17:00,71.6,56.7,29.72,WNW,282,0.0,2.0,59,0.00,,,0.00,0.0,WUHU216DAVISVP2,2013-06-04 10:17:00,
2013-06-04 03:22:00,71.2,56.3,29.73,WNW,282,0.0,2.0,59,0.00,,,0.00,0.0,WUHU216DAVISVP2,2013-06-04 10:22:00,
2013-06-04 03:27:00,70.8,56.4,29.73,WNW,282,0.0,2.0,60,0.00,,,0.00,0.0,WUHU216DAVISVP2,2013-06-04 10:27:00,
2013-06-04 03:32:00,70.5,56.1,29.73,WNW,282,0.0,2.0,60,0.00,,,0.00,0.0,WUHU216DAVISVP2,2013-06-04 10:32:00,
2013-06-04 03:37:00,70.2,56.3,29.73,WNW,282,2.0,2.0,61,0.00,,,0.00,0.0,WUHU216DAVISVP2,2013-06-04 10:37:00,
2013-06-04 03:42:00,69.9,56.0,29.73,WNW,282,0.0,2.0,61,0.00,,,0.00,0.0,WUHU216DAVISVP2,2013-06-04 10:42:00,
2013-06-04 03:47:00,69.7,56.1,29.73,WNW,282,0.0,3.0,62,0.00,,,0.00,0.0,WUHU216DAVISVP2,2013-06-04 10:47:00,
2013-06-04 03:52:00,69.6,56.2,29.74,WNW,282,0.0,3.0,62,0.00,,,0.00,0.0,WUHU216DAVISVP2,2013-06-04 10:52:00,
2013-06-04 03:57:00,69.5,56.5,29.74,WNW,282,0.0,3.0,63,0.00,,,0.00,0.0,WUHU216DAVISVP2,2013-06-04 10:57:00,
2013-06-04 04:02:00,69.3,56.8,29.74,WNW,282,2.0,4.0,64,0.00,,,0.00,0.0,WUHU216DAVISVP2,2013-06-04 11:02:00,
2013-06-04 04:07:00,69.1,56.2,29.74,West,265,2.0,5.0,63,0.00,,,0.00,0.0,WUHU216DAVISVP2,2013-06-04 11:07:00,
2013-06-04 04:12:00,68.9,56.0,29.74,West,264,1.0,5.0,63,0.00,,,0.00,0.0,WUHU216DAVISVP2,2013-06-04 11:12:00,
2013-06-04 04:17:00,68.7,56.2,29.74,West,281,2.0,5.0,64,0.00,,,0.00,0.0,WUHU216DAVISVP2,2013-06-04 11:17:00,
2013-06-04 04:22:00,68.4,55.9,29.74,WNW,284,2.0,4.0,64,0.00,,,0.00,0.0,WUHU216DAVISVP2,2013-06-04 11:22:00,
2013-06-04 04:27:00,68.1,55.9,29.74,WNW,284,0.0,4.0,65,0.00,,,0.00,0.0,WUHU216DAVISVP2,2013-06-04 11:27:00,
2013-06-04 04:32:00,67.9,55.7,29.74,WNW,284,3.0,4.0,65,0.00,,,0.00,0.0,WUHU216DAVISVP2,2013-06-04 11:32:00,
2013-06-04 04:37:00,67.6,55.8,29.74,WNW,284,3.0,4.0,66,0.00,,,0.00,0.0,WUHU216DAVISVP2,2013-06-04 11:37:00,
2013-06-04 04:42:00,67.4,55.6,29.74,WNW,284,0.0,4.0,66,0.00,,,0.00,0.0,WUHU216DAVISVP2,2013-06-04 11:42:00,
2013-06-04 04:47:00,67.2,56.0,29.74,WNW,284,1.0,4.0,67,0.00,,,0.00,0.0,WUHU216DAVISVP2,2013-06-04 11:47:00,
2013-06-04 04:52:00,67.0,55.7,29.75,WNW,284,0.0,4.0,67,0.00,,,0.00,0.0,WUHU216DAVISVP2,2013-06-04 11:52:00,
2013-06-04 04:57:00,66.8,56.1,29.75,WNW,284,0.0,3.0,68,0.00,,,0.00,0.0,WUHU216DAVISVP2,2013-06-04 11:57:00,
2013-06-04 05:02:00,66.7,56.0,29.75,WNW,284,0.0,2.0,68,0.00,,,0.00,0.0,WUHU216DAVISVP2,2013-06-04 12:02:00,
2013-06-04 05:07:00,66.6,55.9,29.75,WNW,284,0.0,2.0,68,0.00,,,0.00,0.0,WUHU216DAVISVP2,2013-06-04 12:07:00,
2013-06-04 05:12:00,66.5,55.8,29.75,WNW,284,0.0,2.0,68,0.00,,,0.00,0.0,WUHU216DAVISVP2,2013-06-04 12:12:00,
2013-06-04 05:17:00,66.5,55.8,29.75,WNW,284,0.0,2.0,68,0.00,,,0.00,0.0,WUHU216DAVISVP2,2013-06-04 12:17:00,
2013-06-04 05:22:00,66.5,55.8,29.75,WNW,284,0.0,2.0,68,0.00,,,0.00,0.0,WUHU216DAVISVP2,2013-06-04 12:22:00,
2013-06-04 05:27:00,66.4,55.7,29.76,WNW,284,1.0,3.0,68,0.00,,,0.00,0.0,WUHU216DAVISVP2,2013-06-04 12:27:00,
2013-06-04 05:32:00,66.3,55.4,29.76,WNW,284,1.0,3.0,68,0.00,,,0.00,0.0,WUHU216DAVISVP2,2013-06-04 12:32:00,
2013-06-04 05:37:00,66.2,55.3,29.76,WNW,284,2.0,3.0,68,0.00,,,0.00,0.0,WUHU216DAVISVP2,2013-06-04 12:37:00,
2013-06-04 05:42:00,66.1,55.8,29.76,WNW,284,0.0,3.0,69,0.00,,,0.00,0.0,WUHU216DAVISVP2,2013-06-04 12:42:00,
2013-06-04 05:47:00,66.0,55.7,29.77,WNW,284,0.0,3.0,69,0.00,,,0.00,5.0,WUHU216DAVISVP2,2013-06-04 12:47:00,
2013-06-04 05:52:00,65.9,55.6,29.77,WNW,284,0.0,3.0,69,0.00,,,0.00,9.0,WUHU216DAVISVP2,2013-06-04 12:52:00,
2013-06-04 05:57:00,65.7,55.8,29.77,WNW,284,1.0,3.0,70,0.00,,,0.00,14.0,WUHU216DAVISVP2,2013-06-04 12:57:00,
2013-06-04 06:02:00,65.6,55.7,29.77,WNW,284,0.0,2.0,70,0.00,,,0.00,18.0,WUHU216DAVISVP2,2013-06-04 13:02:00,
2013-06-04 06:07:00,65.6,55.7,29.77,WNW,284,0.0,3.0,70,0.00,,,0.00,23.0,WUHU216DAVISVP2,2013-06-04 13:07:00,
2013-06-04 06:12:00,65.6,55.5,29.78,WNW,284,0.0,3.0,70,0.00,,,0.00,26.0,WUHU216DAVISVP2,2013-06-04 13:12:00,
2013-06-04 06:17:00,65.5,55.5,29.77,WNW,284,2.0,3.0,70,0.00,,,0.00,40.0,WUHU216DAVISVP2,2013-06-04 13:17:00,
2013-06-04 06:22:00,65.5,56.0,29.78,WNW,284,1.0,3.0,71,0.00,,,0.00,54.0,WUHU216DAVISVP2,2013-06-04 13:22:00,
2013-06-04 06:27:00,65.4,55.5,29.78,WNW,284,1.0,4.0,70,0.00,,,0.00,67.0,WUHU216DAVISVP2,2013-06-04 13:27:00,
2013-06-04 06:32:00,65.4,55.5,29.78,WNW,284,2.0,4.0,70,0.00,,,0.00,79.0,WUHU216DAVISVP2,2013-06-04 13:32:00,
2013-06-04 06:37:00,65.5,55.5,29.78,WNW,284,0.0,4.0,70,0.00,,,0.00,93.0,WUHU216DAVISVP2,2013-06-04 13:37:00,
2013-06-04 06:42:00,65.6,55.5,29.78,WNW,284,2.0,4.0,70,0.00,,,0.00,105.0,WUHU216DAVISVP2,2013-06-04 13:42:00,
2013-06-04 06:47:00,65.8,55.3,29.79,WNW,284,0.0,3.0,69,0.00,,,0.00,120.0,WUHU216DAVISVP2,2013-06-04 13:47:00,
2013-06-04 06:52:00,66.1,55.6,29.79,WNW,284,0.0,3.0,69,0.00,,,0.00,135.0,WUHU216DAVISVP2,2013-06-04 13:52:00,
2013-06-04 06:57:00,66.4,55.7,29.79,WNW,284,0.0,3.0,68,0.00,,,0.00,149.0,WUHU216DAVISVP2,2013-06-04 13:57:00,
2013-06-04 07:02:00,66.9,55.8,29.79,WNW,284,0.0,2.0,67,0.00,,,0.00,163.0,WUHU216DAVISVP2,2013-06-04 14:02:00,
2013-06-04 07:07:00,67.2,56.0,29.79,WNW,284,0.0,1.0,67,0.00,,,0.00,178.0,WUHU216DAVISVP2,2013-06-04 14:07:00,
2013-06-04 07:12:00,67.6,56.0,29.79,WNW,284,0.0,1.0,66,0.00,,,0.00,193.0,WUHU216DAVISVP2,2013-06-04 14:12:00,
2013-06-04 07:17:00,67.8,55.8,29.80,WNW,284,2.0,2.0,65,0.00,,,0.00,204.0,WUHU216DAVISVP2,2013-06-04 14:17:00,
2013-06-04 07:22:00,67.9,56.3,29.80,WNW,284,0.0,2.0,66,0.00,,,0.00,220.0,WUHU216DAVISVP2,2013-06-04 14:22:00,
2013-06-04 07:27:00,68.4,56.8,29.80,WNW,284,0.0,2.0,66,0.00,,,0.00,236.0,WUHU216DAVISVP2,2013-06-04 14:27:00,
2013-06-04 07:32:00,68.5,56.5,29.80,WNW,284,0.0,3.0,65,0.00,,,0.00,250.0,WUHU216DAVISVP2,2013-06-04 14:32:00,
2013-06-04 07:37:00,69.1,57.0,29.80,WNW,284,0.0,3.0,65,0.00,,,0.00,265.0,WUHU216DAVISVP2,2013-06-04 14:37:00,
2013-06-04 07:42:00,69.4,56.9,29.80,WNW,284,1.0,3.0,64,0.00,,,0.00,281.0,WUHU216DAVISVP2,2013-06-04 14:42:00,
2013-06-04 07:47:00,69.3,56.8,29.80,WNW,284,0.0,2.0,64,0.00,,,0.00,299.0,WUHU216DAVISVP2,2013-06-04 14:47:00,
2013-06-04 07:52:00,69.6,57.1,29.81,WNW,284,0.0,3.0,64,0.00,,,0.00,311.0,WUHU216DAVISVP2,2013-06-04 14:52:00,
2013-06-04 07:57:00,69.8,57.3,29.81,WNW,284,1.0,3.0,64,0.00,,,0.00,325.0,WUHU216DAVISVP2,2013-06-04 14:57:00,
2013-06-04 08:02:00,70.0,57.5,29.81,WNW,284,1.0,3.0,64,0.00,,,0.00,343.0,WUHU216DAVISVP2,2013-06-04 15:02:00,
2013-06-04 08:07:00,70.2,57.2,29.81,South,189,1.0,4.0,63,0.00,,,0.00,359.0,WUHU216DAVISVP2,2013-06-04 15:07:00,
2013-06-04 08:12:00,70.4,57.4,29.81,SSW,192,3.0,4.0,63,0.00,,,0.00,376.0,WUHU216DAVISVP2,2013-06-04 15:12:00,
2013-06-04 08:17:00,70.4,57.4,29.81,SW,215,2.0,4.0,63,0.00,,,0.00,392.0,WUHU216DAVISVP2,2013-06-04 15:17:00,
2013-06-04 08:22:00,70.8,57.8,29.81,South,175,0.0,4.0,63,0.00,,,0.00,404.0,WUHU216DAVISVP2,2013-06-04 15:22:00,
2013-06-04 08:27:00,71.6,58.5,29.82,South,175,0.0,4.0,63,0.00,,,0.00,418.0,WUHU216DAVISVP2,2013-06-04 15:27:00,
2013-06-04 08:32:00,72.5,58.0,29.82,SSE,148,1.0,4.0,60,0.00,,,0.00,432.0,WUHU216DAVISVP2,2013-06-04 15:32:00,
2013-06-04 08:37:00,72.6,58.1,29.82,South,188,1.0,6.0,60,0.00,,,0.00,446.0,WUHU216DAVISVP2,2013-06-04 15:37:00,
2013-06-04 08:42:00,72.0,57.5,29.82,SSW,200,3.0,7.0,60,0.00,,,0.00,462.0,WUHU216DAVISVP2,2013-06-04 15:42:00,
2013-06-04 08:47:00,72.1,57.6,29.82,South,175,1.0,7.0,60,0.00,,,0.00,476.0,WUHU216DAVISVP2,2013-06-04 15:47:00,
2013-06-04 08:52:00,72.4,58.4,29.82,South,184,1.0,7.0,61,0.00,,,0.00,494.0,WUHU216DAVISVP2,2013-06-04 15:52:00,
2013-06-04 08:57:00,72.3,57.8,29.82,SSW,211,2.0,7.0,60,0.00,,,0.00,508.0,WUHU216DAVISVP2,2013-06-04 15:57:00,
2013-06-04 09:02:00,72.5,58.0,29.82,SW,221,2.0,6.0,60,0.00,,,0.00,520.0,WUHU216DAVISVP2,2013-06-04 16:02:00,
2013-06-04 09:07:00,72.9,58.4,29.82,SSE,148,4.0,6.0,60,0.00,,,0.00,534.0,WUHU216DAVISVP2,2013-06-04 16:07:00,
2013-06-04 09:12:00,73.6,58.6,29.82,SSE,157,0.0,6.0,59,0.00,,,0.00,547.0,WUHU216DAVISVP2,2013-06-04 16:12:00,
2013-06-04 09:17:00,74.2,58.7,29.82,SSW,209,4.0,6.0,58,0.00,,,0.00,563.0,WUHU216DAVISVP2,2013-06-04 16:17:00,
2013-06-04 09:22:00,73.9,58.4,29.82,South,186,1.0,6.0,58,0.00,,,0.00,578.0,WUHU216DAVISVP2,2013-06-04 16:22:00,
2013-06-04 09:27:00,74.1,58.6,29.82,SSW,207,4.0,6.0,58,0.00,,,0.00,591.0,WUHU216DAVISVP2,2013-06-04 16:27:00,
2013-06-04 09:32:00,74.0,58.5,29.82,SW,235,2.0,6.0,58,0.00,,,0.00,603.0,WUHU216DAVISVP2,2013-06-04 16:32:00,
2013-06-04 09:37:00,73.7,58.2,29.83,SSW,202,1.0,6.0,58,0.00,,,0.00,617.0,WUHU216DAVISVP2,2013-06-04 16:37:00,
2013-06-04 09:42:00,73.7,57.7,29.83,SW,225,3.0,6.0,57,0.00,,,0.00,628.0,WUHU216DAVISVP2,2013-06-04 16:42:00,
2013-06-04 09:47:00,73.9,57.9,29.82,SSW,202,2.0,6.0,57,0.00,,,0.00,643.0,WUHU216DAVISVP2,2013-06-04 16:47:00,
2013-06-04 09:52:00,74.2,58.0,29.82,WSW,240,0.0,6.0,57,0.00,,,0.00,659.0,WUHU216DAVISVP2,2013-06-04 16:52:00,
2013-06-04 09:57:00,74.6,57.9,29.83,WSW,254,4.0,6.0,56,0.00,,,0.00,664.0,WUHU216DAVISVP2,2013-06-04 16:57:00,
2013-06-04 10:02:00,75.0,58.2,29.83,WSW,240,3.0,6.0,56,0.00,,,0.00,680.0,WUHU216DAVISVP2,2013-06-04 17:02:00,
2013-06-04 10:07:00,75.3,57.5,29.83,SW,225,1.0,5.0,54,0.00,,,0.00,687.0,WUHU216DAVISVP2,2013-06-04 17:07:00,
2013-06-04 10:12:00,75.5,57.2,29.83,West,265,0.0,5.0,53,0.00,,,0.00,703.0,WUHU216DAVISVP2,2013-06-04 17:12:00,
2013-06-04 10:17:00,76.0,57.6,29.83,SW,234,1.0,6.0,53,0.00,,,0.00,715.0,WUHU216DAVISVP2,2013-06-04 17:17:00,
2013-06-04 10:22:00,76.6,57.1,29.83,SW,232,1.0,6.0,51,0.00,,,0.00,728.0,WUHU216DAVISVP2,2013-06-04 17:22:00,
2013-06-04 10:27:00,77.2,57.8,29.83,SW,232,0.0,6.0,51,0.00,,,0.00,740.0,WUHU216DAVISVP2,2013-06-04 17:27:00,
2013-06-04 10:32:00,78.3,58.2,29.83,SW,232,0.0,6.0,50,0.00,,,0.00,751.0,WUHU216DAVISVP2,2013-06-04 17:32:00,
2013-06-04 10:37:00,79.1,58.4,29.82,SSW,211,2.0,4.0,49,0.00,,,0.00,756.0,WUHU216DAVISVP2,2013-06-04 17:37:00,
2013-06-04 10:42:00,79.0,57.7,29.82,NW,305,0.0,4.0,48,0.00,,,0.00,768.0,WUHU216DAVISVP2,2013-06-04 17:42:00,
2013-06-04 10:47:00,78.4,57.7,29.82,WSW,242,5.0,8.0,49,0.00,,,0.00,779.0,WUHU216DAVISVP2,2013-06-04 17:47:00,
2013-06-04 10:52:00,77.9,56.7,29.82,West,264,5.0,8.0,48,0.00,,,0.00,789.0,WUHU216DAVISVP2,2013-06-04 17:52:00,
2013-06-04 10:57:00,78.0,57.4,29.82,SW,229,0.0,8.0,49,0.00,,,0.00,795.0,WUHU216DAVISVP2,2013-06-04 17:57:00,
2013-06-04 11:02:00,78.5,56.6,29.82,WNW,291,2.0,8.0,47,0.00,,,0.00,805.0,WUHU216DAVISVP2,2013-06-04 18:02:00,
2013-06-04 11:07:00,78.8,57.5,29.82,West,273,5.0,6.0,48,0.00,,,0.00,812.0,WUHU216DAVISVP2,2013-06-04 18:07:00,
2013-06-04 11:12:00,79.3,58.0,29.82,WNW,300,6.0,8.0,48,0.00,,,0.00,823.0,WUHU216DAVISVP2,2013-06-04 18:12:00,
2013-06-04 11:17:00,79.6,58.3,29.83,WNW,289,4.0,8.0,48,0.00,,,0.00,823.0,WUHU216DAVISVP2,2013-06-04 18:17:00,
2013-06-04 11:22:00,80.1,57.5,29.82,NW,321,3.0,8.0,46,0.00,,,0.00,833.0,WUHU216DAVISVP2,2013-06-04 18:22:00,
2013-06-04 11:27:00,80.0,58.0,29.82,West,281,6.0,9.0,47,0.00,,,0.00,840.0,WUHU216DAVISVP2,2013-06-04 18:27:00,
2013-06-04 11:32:00,80.0,57.4,29.82,West,264,6.0,9.0,46,0.00,,,0.00,849.0,WUHU216DAVISVP2,2013-06-04 18:32:00,
2013-06-04 11:37:00,79.8,57.8,29.82,WSW,247,6.0,9.0,47,0.00,,,0.00,851.0,WUHU216DAVISVP2,2013-06-04 18:37:00,
2013-06-04 11:42:00,80.4,57.7,29.82,WNW,294,2.0,9.0,46,0.00,,,0.00,853.0,WUHU216DAVISVP2,2013-06-04 18:42:00,
2013-06-04 11:47:00,80.9,58.2,29.82,NW,316,1.0,8.0,46,0.00,,,0.00,863.0,WUHU216DAVISVP2,2013-06-04 18:47:00,
2013-06-04 11:52:00,81.1,57.1,29.82,WNW,295,4.0,9.0,44,0.00,,,0.00,868.0,WUHU216DAVISVP2,2013-06-04 18:52:00,
2013-06-04 11:57:00,81.8,57.1,29.82,NW,321,7.0,9.0,43,0.00,,,0.00,874.0,WUHU216DAVISVP2,2013-06-04 18:57:00,
2013-06-04 12:02:00,81.9,56.6,29.82,WNW,295,4.0,11.0,42,0.00,,,0.00,882.0,WUHU216DAVISVP2,2013-06-04 19:02:00,
2013-06-04 12:07:00,81.9,56.6,29.82,NW,319,5.0,11.0,42,0.00,,,0.00,884.0,WUHU216DAVISVP2,2013-06-04 19:07:00,
2013-06-04 12:12:00,82.9,56.7,29.82,WNW,289,5.0,11.0,41,0.00,,,0.00,888.0,WUHU216DAVISVP2,2013-06-04 19:12:00,
2013-06-04 12:17:00,82.9,56.0,29.82,NW,307,3.0,11.0,40,0.00,,,0.00,889.0,WUHU216DAVISVP2,2013-06-04 19:17:00,
2013-06-04 12:22:00,83.2,55.6,29.82,WNW,291,5.0,11.0,39,0.00,,,0.00,893.0,WUHU216DAVISVP2,2013-06-04 19:22:00,
2013-06-04 12:27:00,83.0,56.1,29.81,WNW,293,6.0,11.0,40,0.00,,,0.00,891.0,WUHU216DAVISVP2,2013-06-04 19:27:00,
2013-06-04 12:32:00,83.0,56.1,29.82,NNW,331,6.0,11.0,40,0.00,,,0.00,893.0,WUHU216DAVISVP2,2013-06-04 19:32:00,
2013-06-04 12:37:00,83.5,56.6,29.81,WSW,251,3.0,12.0,40,0.00,,,0.00,893.0,WUHU216DAVISVP2,2013-06-04 19:37:00,
2013-06-04 12:42:00,84.3,57.3,29.81,North,360,6.0,12.0,40,0.00,,,0.00,895.0,WUHU216DAVISVP2,2013-06-04 19:42:00,
2013-06-04 12:47:00,84.9,57.1,29.81,NW,320,7.0,12.0,39,0.00,,,0.00,895.0,WUHU216DAVISVP2,2013-06-04 19:47:00,
2013-06-04 12:52:00,85.0,57.2,29.81,WNW,285,3.0,9.0,39,0.00,,,0.00,895.0,WUHU216DAVISVP2,2013-06-04 19:52:00,
2013-06-04 12:57:00,84.9,56.4,29.81,SW,222,8.0,9.0,38,0.00,,,0.00,893.0,WUHU216DAVISVP2,2013-06-04 19:57:00,
2013-06-04 13:02:00,85.3,56.7,29.81,NNW,340,7.0,12.0,38,0.00,,,0.00,895.0,WUHU216DAVISVP2,2013-06-04 20:02:00,
2013-06-04 13:07:00,85.9,55.8,29.81,NNW,344,0.0,12.0,36,0.00,,,0.00,896.0,WUHU216DAVISVP2,2013-06-04 20:07:00,
2013-06-04 13:12:00,85.8,56.4,29.81,West,260,6.0,12.0,37,0.00,,,0.00,895.0,WUHU216DAVISVP2,2013-06-04 20:12:00,
2013-06-04 13:17:00,85.5,55.4,29.81,WNW,300,5.0,11.0,36,0.00,,,0.00,895.0,WUHU216DAVISVP2,2013-06-04 20:17:00,
2013-06-04 13:22:00,85.3,55.2,29.81,NW,307,6.0,11.0,36,0.00,,,0.00,895.0,WUHU216DAVISVP2,2013-06-04 20:22:00,
2013-06-04 13:27:00,85.6,55.5,29.81,NW,315,3.0,11.0,36,0.00,,,0.00,891.0,WUHU216DAVISVP2,2013-06-04 20:27:00,
2013-06-04 13:32:00,85.6,54.7,29.80,WNW,288,1.0,11.0,35,0.00,,,0.00,888.0,WUHU216DAVISVP2,2013-06-04 20:32:00,
2013-06-04 13:37:00,86.0,55.1,29.80,West,275,5.0,9.0,35,0.00,,,0.00,888.0,WUHU216DAVISVP2,2013-06-04 20:37:00,
2013-06-04 13:42:00,86.3,56.1,29.80,WNW,297,4.0,10.0,36,0.00,,,0.00,882.0,WUHU216DAVISVP2,2013-06-04 20:42:00,
2013-06-04 13:47:00,86.5,55.5,29.80,WNW,291,6.0,10.0,35,0.00,,,0.00,881.0,WUHU216DAVISVP2,2013-06-04 20:47:00,
2013-06-04 13:52:00,86.6,55.6,29.80,WNW,303,5.0,10.0,35,0.00,,,0.00,875.0,WUHU216DAVISVP2,2013-06-04 20:52:00,
2013-06-04 13:57:00,87.3,55.4,29.79,West,268,2.0,10.0,34,0.00,,,0.00,868.0,WUHU216DAVISVP2,2013-06-04 20:57:00,
2013-06-04 14:02:00,87.3,54.6,29.80,WNW,300,7.0,10.0,33,0.00,,,0.00,867.0,WUHU216DAVISVP2,2013-06-04 21:02:00,
2013-06-04 14:07:00,86.9,55.8,29.79,WNW,302,5.0,10.0,35,0.00,,,0.00,863.0,WUHU216DAVISVP2,2013-06-04 21:07:00,
2013-06-04 14:12:00,87.0,56.0,29.79,WNW,301,4.0,10.0,35,0.00,,,0.00,858.0,WUHU216DAVISVP2,2013-06-04 21:12:00,
2013-06-04 14:17:00,87.4,55.6,29.79,WNW,298,6.0,10.0,34,0.00,,,0.00,853.0,WUHU216DAVISVP2,2013-06-04 21:17:00,
2013-06-04 14:22:00,87.6,54.9,29.79,West,281,4.0,10.0,33,0.00,,,0.00,851.0,WUHU216DAVISVP2,2013-06-04 21:22:00,
2013-06-04 14:27:00,87.3,55.5,29.79,West,279,3.0,10.0,34,0.00,,,0.00,844.0,WUHU216DAVISVP2,2013-06-04 21:27:00,
2013-06-04 14:32:00,87.9,55.1,29.79,NW,306,7.0,10.0,33,0.00,,,0.00,835.0,WUHU216DAVISVP2,2013-06-04 21:32:00,
2013-06-04 14:37:00,87.5,53.9,29.78,WNW,294,6.0,12.0,32,0.00,,,0.00,828.0,WUHU216DAVISVP2,2013-06-04 21:37:00,
2013-06-04 14:42:00,88.1,55.3,29.78,NW,320,9.0,12.0,33,0.00,,,0.00,824.0,WUHU216DAVISVP2,2013-06-04 21:42:00,
2013-06-04 14:47:00,87.9,55.1,29.78,NNW,343,5.0,12.0,33,0.00,,,0.00,810.0,WUHU216DAVISVP2,2013-06-04 21:47:00,
2013-06-04 14:52:00,88.3,54.6,29.78,WNW,284,5.0,12.0,32,0.00,,,0.00,807.0,WUHU216DAVISVP2,2013-06-04 21:52:00,
2013-06-04 14:57:00,88.6,56.5,29.78,WNW,300,6.0,11.0,34,0.00,,,0.00,795.0,WUHU216DAVISVP2,2013-06-04 21:57:00,
2013-06-04 15:02:00,88.9,56.8,29.78,NW,306,6.0,10.0,34,0.00,,,0.00,784.0,WUHU216DAVISVP2,2013-06-04 22:02:00,
2013-06-04 15:07:00,88.8,56.7,29.78,West,280,4.0,10.0,34,0.00,,,0.00,772.0,WUHU216DAVISVP2,2013-06-04 22:07:00,
2013-06-04 15:12:00,89.0,56.9,29.78,NW,319,5.0,12.0,34,0.00,,,0.00,766.0,WUHU216DAVISVP2,2013-06-04 22:12:00,
2013-06-04 15:17:00,89.3,56.3,29.78,WNW,301,6.0,12.0,33,0.00,,,0.00,754.0,WUHU216DAVISVP2,2013-06-04 22:17:00,
2013-06-04 15:22:00,89.4,57.3,29.78,WNW,286,6.0,12.0,34,0.00,,,0.00,744.0,WUHU216DAVISVP2,2013-06-04 22:22:00,
2013-06-04 15:27:00,89.3,57.3,29.78,NNW,347,5.0,12.0,34,0.00,,,0.00,733.0,WUHU216DAVISVP2,2013-06-04 22:27:00,
2013-06-04 15:32:00,89.9,56.9,29.78,NW,309,8.0,11.0,33,0.00,,,0.00,722.0,WUHU216DAVISVP2,2013-06-04 22:32:00,
2013-06-04 15:37:00,89.5,56.6,29.77,NNW,333,7.0,13.0,33,0.00,,,0.00,712.0,WUHU216DAVISVP2,2013-06-04 22:37:00,
2013-06-04 15:42:00,89.7,56.8,29.77,West,275,4.0,13.0,33,0.00,,,0.00,700.0,WUHU216DAVISVP2,2013-06-04 22:42:00,
2013-06-04 15:47:00,90.0,56.9,29.77,NNW,337,1.0,13.0,33,0.00,,,0.00,691.0,WUHU216DAVISVP2,2013-06-04 22:47:00,
2013-06-04 15:52:00,90.0,56.1,29.77,WNW,288,7.0,13.0,32,0.00,,,0.00,680.0,WUHU216DAVISVP2,2013-06-04 22:52:00,
2013-06-04 15:57:00,89.9,56.8,29.76,WNW,292,8.0,9.0,33,0.00,,,0.00,666.0,WUHU216DAVISVP2,2013-06-04 22:57:00,
2013-06-04 16:02:00,90.2,56.2,29.76,NW,319,5.0,9.0,32,0.00,,,0.00,657.0,WUHU216DAVISVP2,2013-06-04 23:02:00,
2013-06-04 16:07:00,90.3,56.3,29.76,WSW,256,2.0,12.0,32,0.00,,,0.00,643.0,WUHU216DAVISVP2,2013-06-04 23:07:00,
2013-06-04 16:12:00,91.0,56.1,29.76,WNW,301,9.0,12.0,31,0.00,,,0.00,628.0,WUHU216DAVISVP2,2013-06-04 23:12:00,
2013-06-04 16:17:00,90.2,55.4,29.76,WNW,296,6.0,12.0,31,0.00,,,0.00,617.0,WUHU216DAVISVP2,2013-06-04 23:17:00,
2013-06-04 16:22:00,90.7,55.8,29.76,NW,313,3.0,12.0,31,0.00,,,0.00,606.0,WUHU216DAVISVP2,2013-06-04 23:22:00,
2013-06-04 16:27:00,91.0,56.1,29.75,NW,305,5.0,9.0,31,0.00,,,0.00,592.0,WUHU216DAVISVP2,2013-06-04 23:27:00,
2013-06-04 16:32:00,91.6,56.6,29.75,WSW,247,6.0,8.0,31,0.00,,,0.00,578.0,WUHU216DAVISVP2,2013-06-04 23:32:00,
2013-06-04 16:37:00,91.6,56.6,29.75,NNW,327,4.0,9.0,31,0.00,,,0.00,564.0,WUHU216DAVISVP2,2013-06-04 23:37:00,
2013-06-04 16:42:00,92.1,57.0,29.75,NW,304,5.0,9.0,31,0.00,,,0.00,550.0,WUHU216DAVISVP2,2013-06-04 23:42:00,
2013-06-04 16:47:00,92.3,56.3,29.75,WNW,300,8.0,9.0,30,0.00,,,0.00,534.0,WUHU216DAVISVP2,2013-06-04 23:47:00,
2013-06-04 16:52:00,91.8,56.8,29.75,NNW,333,2.0,9.0,31,0.00,,,0.00,522.0,WUHU216DAVISVP2,2013-06-04 23:52:00,
2013-06-04 16:57:00,91.6,57.5,29.75,West,278,5.0,9.0,32,0.00,,,0.00,510.0,WUHU216DAVISVP2,2013-06-04 23:57:00,
2013-06-04 17:02:00,91.7,57.7,29.75,NW,325,4.0,9.0,32,0.00,,,0.00,492.0,WUHU216DAVISVP2,2013-06-05 00:02:00,
2013-06-04 17:07:00,91.4,57.4,29.75,WNW,300,7.0,9.0,32,0.00,,,0.00,476.0,WUHU216DAVISVP2,2013-06-05 00:07:00,
2013-06-04 17:12:00,91.5,56.6,29.75,NNW,327,4.0,9.0,31,0.00,,,0.00,462.0,WUHU216DAVISVP2,2013-06-05 00:12:00,
2013-06-04 17:17:00,91.6,57.5,29.75,WNW,298,4.0,10.0,32,0.00,,,0.00,446.0,WUHU216DAVISVP2,2013-06-05 00:17:00,
2013-06-04 17:22:00,91.6,56.6,29.75,NW,306,8.0,10.0,31,0.00,,,0.00,431.0,WUHU216DAVISVP2,2013-06-05 00:22:00,
2013-06-04 17:27:00,91.8,57.6,29.75,WNW,294,7.0,10.0,32,0.00,,,0.00,413.0,WUHU216DAVISVP2,2013-06-05 00:27:00,
2013-06-04 17:32:00,91.5,56.5,29.75,WNW,299,8.0,11.0,31,0.00,,,0.00,399.0,WUHU216DAVISVP2,2013-06-05 00:32:00,
2013-06-04 17:37:00,91.2,57.1,29.75,NW,311,3.0,11.0,32,0.00,,,0.00,381.0,WUHU216DAVISVP2,2013-06-05 00:37:00,
2013-06-04 17:42:00,91.0,56.9,29.75,NW,315,5.0,11.0,32,0.00,,,0.00,366.0,WUHU216DAVISVP2,2013-06-05 00:42:00,
2013-06-04 17:47:00,91.0,56.1,29.75,WNW,292,7.0,11.0,31,0.00,,,0.00,352.0,WUHU216DAVISVP2,2013-06-05 00:47:00,
2013-06-04 17:52:00,90.8,56.8,29.75,NW,304,6.0,11.0,32,0.00,,,0.00,336.0,WUHU216DAVISVP2,2013-06-05 00:52:00,
2013-06-04 17:57:00,90.7,56.7,29.75,WNW,302,8.0,11.0,32,0.00,,,0.00,323.0,WUHU216DAVISVP2,2013-06-05 00:57:00,
2013-06-04 18:02:00,90.6,56.6,29.75,NW,313,7.0,10.0,32,0.00,,,0.00,313.0,WUHU216DAVISVP2,2013-06-05 01:02:00,
2013-06-04 18:07:00,90.3,57.2,29.74,NW,306,8.0,10.0,33,0.00,,,0.00,297.0,WUHU216DAVISVP2,2013-06-05 01:07:00,
2013-06-04 18:12:00,90.1,57.9,29.74,WNW,297,5.0,10.0,34,0.00,,,0.00,281.0,WUHU216DAVISVP2,2013-06-05 01:12:00,
2013-06-04 18:17:00,89.8,57.6,29.74,West,277,8.0,12.0,34,0.00,,,0.00,264.0,WUHU216DAVISVP2,2013-06-05 01:17:00,
2013-06-04 18:22:00,89.5,58.9,29.74,West,269,5.0,12.0,36,0.00,,,0.00,248.0,WUHU216DAVISVP2,2013-06-05 01:22:00,
2013-06-04 18:27:00,89.5,58.9,29.74,WNW,285,6.0,12.0,36,0.00,,,0.00,232.0,WUHU216DAVISVP2,2013-06-05 01:27:00,
2013-06-04 18:32:00,89.5,59.7,29.74,WNW,288,4.0,12.0,37,0.00,,,0.00,220.0,WUHU216DAVISVP2,2013-06-05 01:32:00,
2013-06-04 18:37:00,89.4,59.6,29.74,West,271,5.0,11.0,37,0.00,,,0.00,204.0,WUHU216DAVISVP2,2013-06-05 01:37:00,
2013-06-04 18:42:00,88.9,59.2,29.74,WSW,257,9.0,11.0,37,0.00,,,0.00,188.0,WUHU216DAVISVP2,2013-06-05 01:42:00,
2013-06-04 18:47:00,88.7,59.0,29.74,WNW,296,6.0,11.0,37,0.00,,,0.00,172.0,WUHU216DAVISVP2,2013-06-05 01:47:00,
2013-06-04 18:52:00,88.2,59.3,29.74,NW,309,5.0,10.0,38,0.00,,,0.00,153.0,WUHU216DAVISVP2,2013-06-05 01:52:00,
2013-06-04 18:57:00,88.0,59.2,29.74,WNW,286,4.0,11.0,38,0.00,,,0.00,139.0,WUHU216DAVISVP2,2013-06-05 01:57:00,
2013-06-04 19:02:00,87.9,59.1,29.74,WNW,291,6.0,11.0,38,0.00,,,0.00,123.0,WUHU216DAVISVP2,2013-06-05 02:02:00,
2013-06-04 19:07:00,87.5,59.4,29.75,West,277,4.0,11.0,39,0.00,,,0.00,109.0,WUHU216DAVISVP2,2013-06-05 02:07:00,
2013-06-04 19:12:00,87.2,59.9,29.75,West,267,6.0,11.0,40,0.00,,,0.00,97.0,WUHU216DAVISVP2,2013-06-05 02:12:00,
2013-06-04 19:17:00,86.9,59.6,29.75,WNW,288,5.0,10.0,40,0.00,,,0.00,84.0,WUHU216DAVISVP2,2013-06-05 02:17:00,
2013-06-04 19:22:00,86.5,59.3,29.75,West,277,5.0,10.0,40,0.00,,,0.00,72.0,WUHU216DAVISVP2,2013-06-05 02:22:00,
2013-06-04 19:27:00,86.2,59.0,29.75,WNW,294,5.0,10.0,40,0.00,,,0.00,62.0,WUHU216DAVISVP2,2013-06-05 02:27:00,
2013-06-04 19:32:00,86.1,59.6,29.75,WNW,294,6.0,10.0,41,0.00,,,0.00,51.0,WUHU216DAVISVP2,2013-06-05 02:32:00,
2013-06-04 19:37:00,86.0,58.9,29.75,West,270,5.0,9.0,40,0.00,,,0.00,42.0,WUHU216DAVISVP2,2013-06-05 02:37:00,
2013-06-04 19:42:00,85.6,59.2,29.75,WSW,250,5.0,8.0,41,0.00,,,0.00,33.0,WUHU216DAVISVP2,2013-06-05 02:42:00,
2013-06-04 19:47:00,85.2,59.5,29.76,West,270,2.0,8.0,42,0.00,,,0.00,28.0,WUHU216DAVISVP2,2013-06-05 02:47:00,
2013-06-04 19:52:00,84.8,59.8,29.76,WNW,286,3.0,8.0,43,0.00,,,0.00,21.0,WUHU216DAVISVP2,2013-06-05 02:52:00,
2013-06-04 19:57:00,84.2,59.9,29.76,WNW,286,3.0,8.0,44,0.00,,,0.00,16.0,WUHU216DAVISVP2,2013-06-05 02:57:00,
2013-06-04 20:02:00,83.7,59.5,29.76,WNW,290,2.0,7.0,44,0.00,,,0.00,11.0,WUHU216DAVISVP2,2013-06-05 03:02:00,
2013-06-04 20:07:00,83.5,59.9,29.76,West,267,3.0,7.0,45,0.00,,,0.00,7.0,WUHU216DAVISVP2,2013-06-05 03:07:00,
2013-06-04 20:12:00,83.4,59.8,29.76,WNW,284,2.0,7.0,45,0.00,,,0.00,0.0,WUHU216DAVISVP2,2013-06-05 03:12:00,
2013-06-04 20:17:00,83.3,59.8,29.76,West,262,2.0,6.0,45,0.00,,,0.00,0.0,WUHU216DAVISVP2,2013-06-05 03:17:00,
2013-06-04 20:22:00,83.2,59.7,29.76,NW,305,2.0,5.0,45,0.00,,,0.00,0.0,WUHU216DAVISVP2,2013-06-05 03:22:00,
2013-06-04 20:27:00,83.0,59.5,29.77,West,265,2.0,6.0,45,0.00,,,0.00,0.0,WUHU216DAVISVP2,2013-06-05 03:27:00,
2013-06-04 20:32:00,82.9,59.4,29.77,West,275,4.0,6.0,45,0.00,,,0.00,0.0,WUHU216DAVISVP2,2013-06-05 03:32:00,
2013-06-04 20:37:00,82.8,59.3,29.77,WSW,250,4.0,6.0,45,0.00,,,0.00,0.0,WUHU216DAVISVP2,2013-06-05 03:37:00,
2013-06-04 20:42:00,82.8,60.0,29.77,WSW,249,2.0,6.0,46,0.00,,,0.00,0.0,WUHU216DAVISVP2,2013-06-05 03:42:00,
2013-06-04 20:47:00,82.5,59.6,29.77,West,265,3.0,6.0,46,0.00,,,0.00,0.0,WUHU216DAVISVP2,2013-06-05 03:47:00,
2013-06-04 20:52:00,82.3,59.5,29.77,West,269,2.0,6.0,46,0.00,,,0.00,0.0,WUHU216DAVISVP2,2013-06-05 03:52:00,
2013-06-04 20:57:00,82.1,59.3,29.77,WSW,255,1.0,6.0,46,0.00,,,0.00,0.0,WUHU216DAVISVP2,2013-06-05 03:57:00,
2013-06-04 21:01:00,82.0,59.2,29.77,West,261,2.0,6.0,46,0.00,,,0.00,0.0,WUHU216DAVISVP2,2013-06-05 04:01:00,
2013-06-04 21:02:00,81.9,59.7,29.78,West,261,3.0,6.0,47,0.00,,,0.00,0.0,WUHU216DAVISVP2,2013-06-05 04:02:00,
2013-06-04 21:07:00,81.6,60.1,29.77,West,263,3.0,6.0,48,0.00,,,0.00,0.0,WUHU216DAVISVP2,2013-06-05 04:07:00,
2013-06-04 21:12:00,81.1,59.6,29.78,West,263,3.0,6.0,48,0.00,,,0.00,0.0,WUHU216DAVISVP2,2013-06-05 04:12:00,
2013-06-04 21:17:00,80.9,59.5,29.78,West,263,4.0,6.0,48,0.00,,,0.00,0.0,WUHU216DAVISVP2,2013-06-05 04:17:00,
2013-06-04 21:22:00,80.8,59.4,29.78,WSW,254,3.0,6.0,48,0.00,,,0.00,0.0,WUHU216DAVISVP2,2013-06-05 04:22:00,
2013-06-04 21:27:00,80.6,59.8,29.78,West,267,0.0,6.0,49,0.00,,,0.00,0.0,WUHU216DAVISVP2,2013-06-05 04:27:00,
2013-06-04 21:32:00,80.3,59.5,29.78,West,281,2.0,6.0,49,0.00,,,0.00,0.0,WUHU216DAVISVP2,2013-06-05 04:32:00,
2013-06-04 21:37:00,80.0,59.8,29.78,WNW,284,2.0,7.0,50,0.00,,,0.00,0.0,WUHU216DAVISVP2,2013-06-05 04:37:00,
2013-06-04 21:42:00,79.5,59.9,29.78,West,277,4.0,7.0,51,0.00,,,0.00,0.0,WUHU216DAVISVP2,2013-06-05 04:42:00,
2013-06-04 21:47:00,79.1,60.1,29.78,West,275,3.0,7.0,52,0.00,,,0.00,0.0,WUHU216DAVISVP2,2013-06-05 04:47:00,
2013-06-04 21:52:00,78.7,60.3,29.78,WNW,286,4.0,7.0,53,0.00,,,0.00,0.0,WUHU216DAVISVP2,2013-06-05 04:52:00,
2013-06-04 21:57:00,78.5,59.9,29.79,WNW,289,2.0,6.0,53,0.00,,,0.00,0.0,WUHU216DAVISVP2,2013-06-05 04:57:00,
2013-06-04 22:02:00,78.4,59.9,29.79,WNW,292,1.0,6.0,53,0.00,,,0.00,0.0,WUHU216DAVISVP2,2013-06-05 05:02:00,
2013-06-04 22:07:00,78.4,60.4,29.79,West,275,2.0,5.0,54,0.00,,,0.00,0.0,WUHU216DAVISVP2,2013-06-05 05:07:00,
2013-06-04 22:12:00,78.3,60.3,29.79,West,275,0.0,5.0,54,0.00,,,0.00,0.0,WUHU216DAVISVP2,2013-06-05 05:12:00,
2013-06-04 22:17:00,78.1,60.3,29.79,West,275,2.0,5.0,54,0.00,,,0.00,0.0,WUHU216DAVISVP2,2013-06-05 05:17:00,
2013-06-04 22:22:00,77.8,60.5,29.80,West,275,1.0,5.0,55,0.00,,,0.00,0.0,WUHU216DAVISVP2,2013-06-05 05:22:00,
2013-06-04 22:27:00,77.5,60.2,29.80,West,275,0.0,4.0,55,0.00,,,0.00,0.0,WUHU216DAVISVP2,2013-06-05 05:27:00,
2013-06-04 22:32:00,77.4,60.7,29.80,West,275,0.0,4.0,56,0.00,,,0.00,0.0,WUHU216DAVISVP2,2013-06-05 05:32:00,
2013-06-04 22:37:00,77.3,60.6,29.80,West,275,0.0,4.0,56,0.00,,,0.00,0.0,WUHU216DAVISVP2,2013-06-05 05:37:00,
2013-06-04 22:42:00,77.3,60.6,29.80,West,275,0.0,2.0,56,0.00,,,0.00,0.0,WUHU216DAVISVP2,2013-06-05 05:42:00,
2013-06-04 22:47:00,77.1,60.9,29.80,West,275,0.0,0.0,57,0.00,,,0.00,0.0,WUHU216DAVISVP2,2013-06-05 05:47:00,
2013-06-04 22:52:00,76.9,60.7,29.80,West,275,0.0,0.0,57,0.00,,,0.00,0.0,WUHU216DAVISVP2,2013-06-05 05:52:00,
2013-06-04 22:57:00,76.7,60.5,29.81,West,275,0.0,0.0,57,0.00,,,0.00,0.0,WUHU216DAVISVP2,2013-06-05 05:57:00,
2013-06-04 23:02:00,76.5,60.8,29.81,West,275,0.0,0.0,58,0.00,,,0.00,0.0,WUHU216DAVISVP2,2013-06-05 06:02:00,
2013-06-04 23:07:00,76.4,60.7,29.80,West,275,0.0,1.0,58,0.00,,,0.00,0.0,WUHU216DAVISVP2,2013-06-05 06:07:00,
2013-06-04 23:12:00,76.2,60.3,29.81,West,275,2.0,2.0,58,0.00,,,0.00,0.0,WUHU216DAVISVP2,2013-06-05 06:12:00,
2013-06-04 23:17:00,76.1,60.7,29.81,West,275,1.0,2.0,59,0.00,,,0.00,0.0,WUHU216DAVISVP2,2013-06-05 06:17:00,
2013-06-04 23:22:00,76.1,60.9,29.81,West,275,1.0,2.0,59,0.00,,,0.00,0.0,WUHU216DAVISVP2,2013-06-05 06:22:00,
2013-06-04 23:27:00,76.0,60.8,29.81,West,275,2.0,3.0,59,0.00,,,0.00,0.0,WUHU216DAVISVP2,2013-06-05 06:27:00,
2013-06-04 23:32:00,75.8,60.4,29.81,West,264,2.0,6.0,59,0.00,,,0.00,0.0,WUHU216DAVISVP2,2013-06-05 06:32:00,
2013-06-04 23:37:00,75.6,60.7,29.81,WNW,294,4.0,6.0,60,0.00,,,0.00,0.0,WUHU216DAVISVP2,2013-06-05 06:37:00,
2013-06-04 23:42:00,75.5,60.6,29.81,West,265,2.0,6.0,60,0.00,,,0.00,0.0,WUHU216DAVISVP2,2013-06-05 06:42:00,
2013-06-04 23:47:00,75.3,60.9,29.81,West,259,2.0,5.0,61,0.00,,,0.00,0.0,WUHU216DAVISVP2,2013-06-05 06:47:00,
2013-06-04 23:52:00,75.0,61.3,29.81,WNW,290,3.0,5.0,62,0.00,,,0.00,0.0,WUHU216DAVISVP2,2013-06-05 06:52:00,
2013-06-04 23:57:00,74.6,60.9,29.82,West,281,1.0,5.0,62,0.00,,,0.00,0.0,WUHU216DAVISVP2,2013-06-05 06:57:00,